Карточка аэропорта UWSG

Внимание!
Информация на этой странице в стадии наполнения.
Если вы не увидели какой-то информации, или заметили неточность - пожалуйста сообщите нам!
Спасибо!
Команда RU-STAFF
Название аэропортаГагарин
Название аэропорта (англ.)Gagarin
Превышение31 ft. (9.4 m.)
Координаты51°42.6', 46°10.8'
Высота перехода3000ft
Эшелон переходаQNH>=760mmHg:FL040, 733mmHg<=QNH<760mmHg:FL050,QNH<732mmHg:FL060
Коды ответчикаNo info
Зона ОрВДСамара РПИ (UWWW)
Данные METARUWSG 241400Z 00000MPS 9999 -SHRA OVC033CB 10/10 Q1010 R08/290160 NOSIG RMK QFE755/1007
Проноз погоды (TAF)NODATA
NOTAMshow/hide NOTAM
AWOS   TABLE

Информация о ВПП

ВПП Длина ВПП (м.) Покрытие Курс ВПП Частота ILS
083000Бетон81108.55
263000Бетон261108.75

Диспетчерские позиции

Позывной Наименование органа УВД Частота
UWSG_APPГагарин-Подход130.300
UWSG_TWRГагарин-Старт122.850



Спутниковое изображение